Time,TemperatureF,DewpointF,PressureIn,WindDirection,WindDirectionDegrees,WindSpeedMPH,WindSpeedGustMPH,Humidity,HourlyPrecipIn,Conditions,Clouds,dailyrainin,SoftwareType,DateUTC
2013-03-18 00:00:00,23.5,23.5,28.89,SE,125,4.0,6.0,100,0.00,,CLR,0.00,VWS V14.01,2013-03-18 05:00:00,
2013-03-18 00:05:00,23.5,23.5,28.89,ESE,112,1.0,10.0,100,0.00,,CLR,0.00,VWS V14.01,2013-03-18 05:05:00,
2013-03-18 00:10:00,23.4,23.4,28.88,ESE,120,2.0,2.0,100,0.00,,CLR,0.00,VWS V14.01,2013-03-18 05:10:00,
2013-03-18 00:15:00,23.4,23.4,28.89,ESE,111,3.0,10.0,100,0.00,,CLR,0.00,VWS V14.01,2013-03-18 05:15:00,
2013-03-18 00:20:00,23.3,23.3,28.88,ESE,122,6.0,6.0,100,0.00,,CLR,0.00,VWS V14.01,2013-03-18 05:20:00,
2013-03-18 00:25:00,23.3,23.3,28.88,SE,130,1.0,7.0,100,0.00,,CLR,0.00,VWS V14.01,2013-03-18 05:25:00,
2013-03-18 00:30:00,23.3,23.3,28.88,ESE,113,4.0,6.0,100,0.00,,CLR,0.00,VWS V14.01,2013-03-18 05:30:00,
2013-03-18 00:35:00,23.3,23.3,28.88,ESE,119,6.0,8.0,100,0.00,,CLR,0.00,VWS V14.01,2013-03-18 05:35:00,
2013-03-18 00:40:00,23.3,23.3,28.88,East,100,4.0,5.0,100,0.00,,CLR,0.00,VWS V14.01,2013-03-18 05:40:00,
2013-03-18 00:45:00,23.2,23.2,28.88,ENE,58,3.0,6.0,100,0.00,,CLR,0.00,VWS V14.01,2013-03-18 05:45:00,
2013-03-18 00:50:00,23.2,23.2,28.87,East,90,1.0,4.0,100,0.00,,CLR,0.00,VWS V14.01,2013-03-18 05:50:00,
2013-03-18 00:55:00,23.2,23.2,28.88,SE,140,0.0,7.0,100,0.00,,CLR,0.00,VWS V14.01,2013-03-18 05:55:00,
2013-03-18 01:00:00,23.1,23.1,28.87,ESE,111,6.0,7.0,100,0.00,,CLR,0.00,VWS V14.01,2013-03-18 06:00:00,
2013-03-18 01:05:00,23.1,23.1,28.87,East,101,5.0,7.0,100,0.00,,CLR,0.00,VWS V14.01,2013-03-18 06:05:00,
2013-03-18 01:10:00,23.0,23.0,28.87,ESE,104,3.0,3.0,100,0.00,,CLR,0.00,VWS V14.01,2013-03-18 06:10:00,
2013-03-18 01:15:00,23.0,23.0,28.86,ESE,113,3.0,6.0,100,0.00,,CLR,0.00,VWS V14.01,2013-03-18 06:15:00,
2013-03-18 01:20:00,23.0,23.0,28.86,ESE,102,1.0,2.0,100,0.00,,CLR,0.00,VWS V14.01,2013-03-18 06:20:00,
2013-03-18 01:25:00,22.9,22.9,28.86,East,82,1.0,4.0,100,0.00,,CLR,0.00,VWS V14.01,2013-03-18 06:25:00,
2013-03-18 01:30:00,22.8,22.8,28.86,ESE,120,0.0,5.0,100,0.00,,CLR,0.00,VWS V14.01,2013-03-18 06:30:00,
2013-03-18 01:35:00,22.8,22.8,28.85,ESE,102,2.0,8.0,100,0.00,,CLR,0.00,VWS V14.01,2013-03-18 06:35:00,
2013-03-18 01:40:00,22.7,22.7,28.84,East,89,1.0,3.0,100,0.00,,CLR,0.00,VWS V14.01,2013-03-18 06:40:00,
2013-03-18 01:45:00,22.7,22.7,28.84,East,88,1.0,4.0,100,0.00,,CLR,0.00,VWS V14.01,2013-03-18 06:45:00,
2013-03-18 01:50:00,22.7,22.7,28.84,East,86,2.0,2.0,100,0.00,,CLR,0.00,VWS V14.01,2013-03-18 06:50:00,
2013-03-18 01:55:00,22.6,22.6,28.83,ESE,123,0.0,3.0,100,0.00,,CLR,0.00,VWS V14.01,2013-03-18 06:55:00,
2013-03-18 02:00:00,22.5,22.5,28.83,NE,56,0.0,1.0,100,0.00,,CLR,0.00,VWS V14.01,2013-03-18 07:00:00,
2013-03-18 02:05:00,22.5,22.5,28.83,ENE,77,0.0,5.0,100,0.00,,CLR,0.00,VWS V14.01,2013-03-18 07:05:00,
2013-03-18 02:10:00,22.5,22.5,28.82,ENE,74,2.0,4.0,100,0.00,,CLR,0.00,VWS V14.01,2013-03-18 07:10:00,
2013-03-18 02:15:00,22.5,22.5,28.83,NE,51,1.0,4.0,100,0.00,,CLR,0.00,VWS V14.01,2013-03-18 07:15:00,
2013-03-18 02:20:00,22.5,22.5,28.83,SSE,155,1.0,3.0,100,0.00,,CLR,0.00,VWS V14.01,2013-03-18 07:20:00,
2013-03-18 02:25:00,22.5,22.5,28.83,NE,54,0.0,3.0,100,0.00,,CLR,0.00,VWS V14.01,2013-03-18 07:25:00,
2013-03-18 02:30:00,22.5,22.5,28.83,NE,54,0.0,1.0,100,0.00,,CLR,0.00,VWS V14.01,2013-03-18 07:30:00,
2013-03-18 02:35:00,22.5,22.5,28.83,ENE,64,0.0,3.0,100,0.00,,CLR,0.00,VWS V14.01,2013-03-18 07:35:00,
2013-03-18 02:40:00,22.5,22.5,28.82,ENE,64,0.0,0.0,100,0.00,,CLR,0.00,VWS V14.01,2013-03-18 07:40:00,
2013-03-18 02:45:00,22.4,22.4,28.82,North,0,0.0,1.0,100,0.00,,CLR,0.00,VWS V14.01,2013-03-18 07:45:00,
2013-03-18 02:50:00,22.3,22.3,28.81,North,0,0.0,0.0,100,0.00,,CLR,0.00,VWS V14.01,2013-03-18 07:50:00,
2013-03-18 02:55:00,22.2,22.2,28.82,SW,228,0.0,2.0,100,0.00,,CLR,0.00,VWS V14.01,2013-03-18 07:55:00,
2013-03-18 03:00:00,22.2,22.2,28.81,SW,227,0.0,0.0,100,0.00,,CLR,0.00,VWS V14.01,2013-03-18 08:00:00,
2013-03-18 03:05:00,22.1,22.1,28.81,ENE,59,0.0,0.0,100,0.00,,CLR,0.00,VWS V14.01,2013-03-18 08:05:00,
2013-03-18 03:10:00,22.1,22.1,28.81,ENE,59,0.0,0.0,100,0.00,,CLR,0.00,VWS V14.01,2013-03-18 08:10:00,
2013-03-18 03:15:00,22.0,22.0,28.80,ENE,59,0.0,1.0,100,0.00,,CLR,0.00,VWS V14.01,2013-03-18 08:15:00,
2013-03-18 03:20:00,21.9,21.9,28.79,NE,37,0.0,1.0,100,0.00,,CLR,0.00,VWS V14.01,2013-03-18 08:20:00,
2013-03-18 03:25:00,21.9,21.9,28.79,ENE,73,0.0,2.0,100,0.00,,CLR,0.00,VWS V14.01,2013-03-18 08:25:00,
2013-03-18 03:30:00,21.8,21.8,28.79,NNE,13,0.0,0.0,100,0.00,,CLR,0.00,VWS V14.01,2013-03-18 08:30:00,
2013-03-18 03:35:00,21.8,21.8,28.79,North,0,0.0,2.0,100,0.00,,CLR,0.00,VWS V14.01,2013-03-18 08:35:00,
2013-03-18 03:40:00,21.8,21.8,28.79,North,0,0.0,0.0,100,0.00,,CLR,0.00,VWS V14.01,2013-03-18 08:40:00,
2013-03-18 03:45:00,21.8,21.8,28.78,North,0,0.0,0.0,100,0.00,,CLR,0.00,VWS V14.01,2013-03-18 08:45:00,
2013-03-18 03:50:00,21.6,21.6,28.78,North,0,0.0,0.0,100,0.00,,CLR,0.00,VWS V14.01,2013-03-18 08:50:00,
2013-03-18 03:55:00,21.6,21.6,28.78,North,0,0.0,1.0,100,0.00,,CLR,0.00,VWS V14.01,2013-03-18 08:55:00,
2013-03-18 04:00:00,21.6,21.6,28.78,North,0,0.0,0.0,100,0.00,,CLR,0.00,VWS V14.01,2013-03-18 09:00:00,
2013-03-18 04:05:00,21.6,21.6,28.78,East,92,0.0,1.0,100,0.00,,CLR,0.00,VWS V14.01,2013-03-18 09:05:00,
2013-03-18 04:10:00,21.7,21.7,28.77,East,92,0.0,0.0,100,0.00,,CLR,0.00,VWS V14.01,2013-03-18 09:10:00,
2013-03-18 04:15:00,21.8,21.8,28.77,East,92,0.0,0.0,100,0.00,,CLR,0.00,VWS V14.01,2013-03-18 09:15:00,
2013-03-18 04:20:00,21.9,21.9,28.76,East,92,0.0,0.0,100,0.00,,CLR,0.00,VWS V14.01,2013-03-18 09:20:00,
2013-03-18 04:25:00,22.1,22.1,28.76,East,92,0.0,0.0,100,0.00,,CLR,0.00,VWS V14.01,2013-03-18 09:25:00,
2013-03-18 04:30:00,22.2,22.2,28.76,East,92,0.0,0.0,100,0.00,,CLR,0.00,VWS V14.01,2013-03-18 09:30:00,
2013-03-18 04:35:00,22.2,22.2,28.75,East,92,0.0,1.0,100,0.00,,CLR,0.00,VWS V14.01,2013-03-18 09:35:00,
2013-03-18 04:40:00,22.3,22.3,28.75,NE,46,2.0,2.0,100,0.00,,CLR,0.00,VWS V14.01,2013-03-18 09:40:00,
2013-03-18 04:45:00,22.4,22.4,28.75,ENE,60,0.0,3.0,100,0.00,,CLR,0.00,VWS V14.01,2013-03-18 09:45:00,
2013-03-18 04:50:00,22.5,22.5,28.74,NE,52,0.0,0.0,100,0.00,,CLR,0.00,VWS V14.01,2013-03-18 09:50:00,
2013-03-18 04:55:00,22.6,22.6,28.74,East,79,1.0,3.0,100,0.00,,CLR,0.00,VWS V14.01,2013-03-18 09:55:00,
2013-03-18 05:00:00,22.8,22.8,28.74,NE,34,0.0,0.0,100,0.00,,CLR,0.00,VWS V14.01,2013-03-18 10:00:00,
2013-03-18 05:05:00,22.8,22.8,28.74,North,9,0.0,2.0,100,0.00,,CLR,0.00,VWS V14.01,2013-03-18 10:05:00,
2013-03-18 05:10:00,22.9,22.9,28.74,North,0,1.0,1.0,100,0.00,,CLR,0.00,VWS V14.01,2013-03-18 10:10:00,
2013-03-18 05:15:00,23.0,23.0,28.74,North,0,0.0,1.0,100,0.00,,CLR,0.00,VWS V14.01,2013-03-18 10:15:00,
2013-03-18 05:20:00,23.0,23.0,28.74,North,0,0.0,1.0,100,0.00,,CLR,0.00,VWS V14.01,2013-03-18 10:20:00,
2013-03-18 05:25:00,23.1,23.1,28.74,NNE,29,0.0,2.0,100,0.00,,CLR,0.00,VWS V14.01,2013-03-18 10:25:00,
2013-03-18 05:30:00,23.2,23.2,28.73,NE,40,0.0,0.0,100,0.00,,CLR,0.00,VWS V14.01,2013-03-18 10:30:00,
2013-03-18 05:35:00,23.3,23.3,28.73,NE,40,0.0,4.0,100,0.00,,OVC110,0.00,VWS V14.01,2013-03-18 10:35:00,
2013-03-18 05:40:00,23.5,23.5,28.72,SE,138,0.0,1.0,100,0.00,,OVC110,0.00,VWS V14.01,2013-03-18 10:40:00,
2013-03-18 05:45:00,23.7,23.7,28.72,ESE,103,2.0,5.0,100,0.00,,OVC110,0.00,VWS V14.01,2013-03-18 10:45:00,
2013-03-18 05:50:00,23.9,23.9,28.72,SE,135,5.0,8.0,100,0.00,,OVC110,0.00,VWS V14.01,2013-03-18 10:50:00,
2013-03-18 05:55:00,24.1,24.1,28.72,ESE,121,1.0,8.0,100,0.00,,OVC110,0.00,VWS V14.01,2013-03-18 10:55:00,
2013-03-18 06:00:00,24.3,24.3,28.72,ESE,112,2.0,2.0,100,0.00,,OVC110,0.00,VWS V14.01,2013-03-18 11:00:00,
2013-03-18 06:05:00,24.5,24.5,28.72,East,96,2.0,9.0,100,0.00,,OVC110,0.00,VWS V14.01,2013-03-18 11:05:00,
2013-03-18 06:10:00,24.7,24.7,28.72,ESE,116,1.0,6.0,100,0.00,,OVC110,0.00,VWS V14.01,2013-03-18 11:10:00,
2013-03-18 06:15:00,24.9,24.9,28.72,ESE,118,3.0,8.0,100,0.00,,OVC110,0.00,VWS V14.01,2013-03-18 11:15:00,
2013-03-18 06:20:00,25.1,25.1,28.72,SE,137,4.0,6.0,100,0.00,,OVC110,0.00,VWS V14.01,2013-03-18 11:20:00,
2013-03-18 06:25:00,25.2,25.2,28.72,SE,135,0.0,8.0,100,0.00,,OVC110,0.00,VWS V14.01,2013-03-18 11:25:00,
2013-03-18 06:30:00,25.4,25.4,28.72,SE,142,1.0,4.0,100,0.00,,OVC110,0.00,VWS V14.01,2013-03-18 11:30:00,
2013-03-18 06:35:00,25.5,25.5,28.72,ESE,107,3.0,11.0,100,0.00,,OVC035,0.00,VWS V14.01,2013-03-18 11:35:00,
2013-03-18 06:40:00,25.6,25.6,28.71,SE,146,4.0,5.0,100,0.00,,OVC035,0.00,VWS V14.01,2013-03-18 11:40:00,
2013-03-18 06:45:00,25.7,25.7,28.71,East,100,5.0,7.0,100,0.00,,OVC035,0.00,VWS V14.01,2013-03-18 11:45:00,
2013-03-18 06:50:00,25.8,25.8,28.71,ENE,73,1.0,5.0,100,0.00,,OVC035,0.00,VWS V14.01,2013-03-18 11:50:00,
2013-03-18 06:55:00,25.9,25.9,28.71,East,88,2.0,8.0,100,0.00,,OVC035,0.00,VWS V14.01,2013-03-18 11:55:00,
2013-03-18 07:00:00,25.9,25.9,28.70,ESE,111,4.0,6.0,100,0.00,,OVC035,0.00,VWS V14.01,2013-03-18 12:00:00,
2013-03-18 07:05:00,26.0,26.0,28.70,ESE,114,3.0,8.0,100,0.00,,OVC035,0.00,VWS V14.01,2013-03-18 12:05:00,
2013-03-18 07:10:00,26.1,26.1,28.70,SSE,156,1.0,6.0,100,0.00,,OVC035,0.00,VWS V14.01,2013-03-18 12:10:00,
2013-03-18 07:15:00,26.2,26.2,28.69,ESE,123,2.0,7.0,100,0.00,,OVC035,0.00,VWS V14.01,2013-03-18 12:15:00,
2013-03-18 07:20:00,26.2,26.2,28.69,NE,41,3.0,4.0,100,0.00,,OVC035,0.00,VWS V14.01,2013-03-18 12:20:00,
2013-03-18 07:25:00,26.3,26.3,28.69,East,98,4.0,8.0,100,0.00,,OVC035,0.00,VWS V14.01,2013-03-18 12:25:00,
2013-03-18 07:30:00,26.4,26.4,28.69,SE,135,5.0,9.0,100,0.00,,OVC035,0.00,VWS V14.01,2013-03-18 12:30:00,
2013-03-18 07:35:00,26.4,26.4,28.69,ESE,118,3.0,9.0,100,0.00,,OVC023,0.00,VWS V14.01,2013-03-18 12:35:00,
2013-03-18 07:40:00,26.4,26.4,28.68,SE,132,3.0,3.0,100,0.00,,OVC023,0.00,VWS V14.01,2013-03-18 12:40:00,
2013-03-18 07:45:00,26.5,26.5,28.68,East,95,0.0,10.0,100,0.00,,OVC023,0.00,VWS V14.01,2013-03-18 12:45:00,
2013-03-18 07:50:00,26.6,26.6,28.67,East,97,8.0,9.0,100,0.00,,OVC023,0.00,VWS V14.01,2013-03-18 12:50:00,
2013-03-18 07:55:00,26.7,26.7,28.67,ESE,110,3.0,9.0,100,0.00,,OVC023,0.00,VWS V14.01,2013-03-18 12:55:00,
2013-03-18 08:00:00,26.7,26.7,28.67,SE,127,1.0,2.0,100,0.00,,OVC023,0.00,VWS V14.01,2013-03-18 13:00:00,
2013-03-18 08:05:00,26.8,26.8,28.67,SE,130,5.0,9.0,100,0.00,,OVC023,0.00,VWS V14.01,2013-03-18 13:05:00,
2013-03-18 08:10:00,26.8,26.8,28.67,ESE,107,6.0,10.0,100,0.00,,OVC023,0.00,VWS V14.01,2013-03-18 13:10:00,
2013-03-18 08:15:00,26.9,26.9,28.66,East,82,1.0,10.0,100,0.00,,OVC023,0.00,VWS V14.01,2013-03-18 13:15:00,
2013-03-18 08:20:00,27.0,27.0,28.66,East,99,8.0,10.0,100,0.00,,OVC023,0.00,VWS V14.01,2013-03-18 13:20:00,
2013-03-18 08:25:00,27.0,27.0,28.65,ESE,112,3.0,13.0,100,0.00,,OVC023,0.00,VWS V14.01,2013-03-18 13:25:00,
2013-03-18 08:30:00,27.1,27.1,28.65,East,90,2.0,3.0,100,0.00,,OVC023,0.00,VWS V14.01,2013-03-18 13:30:00,
2013-03-18 08:35:00,27.1,27.1,28.65,ESE,123,6.0,9.0,100,0.00,,,0.00,VWS V14.01,2013-03-18 13:35:00,
2013-03-18 08:40:00,27.2,27.2,28.65,ESE,113,6.0,14.0,100,0.00,,,0.00,VWS V14.01,2013-03-18 13:40:00,
2013-03-18 08:45:00,27.3,27.3,28.65,SE,134,5.0,14.0,100,0.00,,,0.00,VWS V14.01,2013-03-18 13:45:00,
2013-03-18 08:50:00,27.4,27.4,28.65,East,100,4.0,8.0,100,0.00,,,0.00,VWS V14.01,2013-03-18 13:50:00,
2013-03-18 08:55:00,27.5,27.5,28.64,ENE,77,1.0,8.0,100,0.00,,,0.00,VWS V14.01,2013-03-18 13:55:00,
2013-03-18 09:00:00,27.6,27.6,28.64,SSE,151,6.0,8.0,100,0.00,,,0.00,VWS V14.01,2013-03-18 14:00:00,
2013-03-18 09:05:00,27.8,27.8,28.64,ESE,109,7.0,9.0,100,0.00,,,0.00,VWS V14.01,2013-03-18 14:05:00,
2013-03-18 09:10:00,28.0,28.0,28.63,NE,54,1.0,5.0,100,0.00,,,0.00,VWS V14.01,2013-03-18 14:10:00,
2013-03-18 09:15:00,28.1,28.1,28.64,ESE,110,5.0,5.0,100,0.00,,,0.00,VWS V14.01,2013-03-18 14:15:00,
2013-03-18 09:20:00,28.3,28.3,28.64,SE,136,1.0,1.0,100,0.00,,,0.00,VWS V14.01,2013-03-18 14:20:00,
2013-03-18 09:25:00,28.4,28.4,28.64,SE,135,3.0,9.0,100,0.00,,,0.00,VWS V14.01,2013-03-18 14:25:00,
2013-03-18 09:30:00,28.5,28.5,28.64,SE,124,0.0,0.0,100,0.00,,,0.00,VWS V14.01,2013-03-18 14:30:00,
2013-03-18 09:35:00,28.6,28.6,28.63,ESE,115,4.0,6.0,100,0.00,,,0.00,VWS V14.01,2013-03-18 14:35:00,
2013-03-18 09:40:00,28.6,28.6,28.63,ESE,123,2.0,5.0,100,0.00,,,0.00,VWS V14.01,2013-03-18 14:40:00,
2013-03-18 09:45:00,28.8,28.8,28.63,ESE,115,4.0,11.0,100,0.00,,,0.00,VWS V14.01,2013-03-18 14:45:00,
2013-03-18 09:50:00,28.9,28.9,28.62,SE,135,6.0,7.0,100,0.00,,,0.00,VWS V14.01,2013-03-18 14:50:00,
2013-03-18 09:55:00,29.1,29.1,28.62,ESE,105,0.0,7.0,100,0.00,,,0.00,VWS V14.01,2013-03-18 14:55:00,
2013-03-18 10:00:00,29.3,29.3,28.62,SE,137,2.0,3.0,100,0.00,,,0.00,VWS V14.01,2013-03-18 15:00:00,
2013-03-18 10:05:00,29.7,29.7,28.62,SE,139,0.0,3.0,100,0.00,,,0.00,VWS V14.01,2013-03-18 15:05:00,
2013-03-18 10:10:00,30.1,30.1,28.62,SSE,147,0.0,2.0,100,0.00,,,0.00,VWS V14.01,2013-03-18 15:10:00,
2013-03-18 10:15:00,30.4,30.4,28.62,SSE,160,4.0,6.0,100,0.00,,,0.00,VWS V14.01,2013-03-18 15:15:00,
2013-03-18 10:20:00,30.6,30.6,28.62,South,180,0.0,1.0,100,0.00,,,0.00,VWS V14.01,2013-03-18 15:20:00,
2013-03-18 10:25:00,30.6,30.6,28.62,South,172,2.0,6.0,100,0.00,,,0.00,VWS V14.01,2013-03-18 15:25:00,
2013-03-18 10:30:00,30.8,30.8,28.62,SE,126,4.0,4.0,100,0.00,,,0.00,VWS V14.01,2013-03-18 15:30:00,
2013-03-18 10:35:00,30.9,30.9,28.61,SE,141,0.0,6.0,100,0.00,,,0.00,VWS V14.01,2013-03-18 15:35:00,
2013-03-18 10:40:00,31.1,31.1,28.61,SSE,154,0.0,5.0,100,0.00,,,0.00,VWS V14.01,2013-03-18 15:40:00,
2013-03-18 10:45:00,31.2,31.2,28.61,SSE,159,2.0,7.0,100,0.00,,,0.00,VWS V14.01,2013-03-18 15:45:00,
2013-03-18 10:50:00,31.3,31.3,28.60,ESE,117,3.0,4.0,100,0.00,,,0.00,VWS V14.01,2013-03-18 15:50:00,
2013-03-18 10:55:00,31.4,31.4,28.60,South,180,4.0,10.0,100,0.00,,,0.00,VWS V14.01,2013-03-18 15:55:00,
2013-03-18 11:00:00,31.6,31.6,28.60,SE,134,4.0,6.0,100,0.00,,,0.00,VWS V14.01,2013-03-18 16:00:00,
2013-03-18 11:05:00,31.7,31.7,28.60,ESE,112,5.0,7.0,100,0.00,,,0.00,VWS V14.01,2013-03-18 16:05:00,
2013-03-18 11:10:00,31.7,31.7,28.60,SE,142,2.0,3.0,100,0.00,,,0.00,VWS V14.01,2013-03-18 16:10:00,
2013-03-18 11:15:00,31.7,31.7,28.60,SSE,156,3.0,8.0,100,0.00,,,0.00,VWS V14.01,2013-03-18 16:15:00,
2013-03-18 11:20:00,31.9,31.9,28.60,SSE,157,0.0,2.0,100,0.00,,,0.00,VWS V14.01,2013-03-18 16:20:00,
2013-03-18 11:25:00,32.1,32.1,28.59,ESE,123,5.0,6.0,100,0.00,,,0.00,VWS V14.01,2013-03-18 16:25:00,
2013-03-18 11:30:00,32.2,32.2,28.59,SE,144,0.0,2.0,100,0.00,,,0.00,VWS V14.01,2013-03-18 16:30:00,
2013-03-18 11:35:00,32.2,32.2,28.59,SSE,157,3.0,3.0,100,0.00,,,0.00,VWS V14.01,2013-03-18 16:35:00,
2013-03-18 11:40:00,32.3,32.3,28.59,SSE,163,0.0,2.0,100,0.00,,,0.00,VWS V14.01,2013-03-18 16:40:00,
2013-03-18 11:45:00,32.4,32.4,28.59,South,171,4.0,4.0,100,0.01,,,0.01,VWS V14.01,2013-03-18 16:45:00,
2013-03-18 11:50:00,32.6,32.6,28.59,SSE,156,2.0,3.0,100,0.01,,,0.01,VWS V14.01,2013-03-18 16:50:00,
2013-03-18 11:55:00,32.8,32.8,28.59,South,184,1.0,5.0,100,0.01,,,0.01,VWS V14.01,2013-03-18 16:55:00,
2013-03-18 12:00:00,32.8,32.8,28.58,SSE,155,3.0,4.0,100,0.01,,,0.01,VWS V14.01,2013-03-18 17:00:00,
2013-03-18 12:05:00,33.1,33.1,28.59,South,176,3.0,7.0,100,0.02,,,0.02,VWS V14.01,2013-03-18 17:05:00,
2013-03-18 12:10:00,33.4,33.4,28.58,South,173,2.0,6.0,100,0.02,,,0.02,VWS V14.01,2013-03-18 17:10:00,
2013-03-18 12:15:00,33.4,33.4,28.58,South,184,3.0,9.0,100,0.02,,,0.02,VWS V14.01,2013-03-18 17:15:00,
2013-03-18 12:20:00,33.3,33.3,28.58,South,182,6.0,7.0,100,0.02,,,0.02,VWS V14.01,2013-03-18 17:20:00,
2013-03-18 12:25:00,33.1,33.1,28.58,SSE,161,4.0,7.0,100,0.02,,,0.02,VWS V14.01,2013-03-18 17:25:00,
2013-03-18 12:30:00,33.0,33.0,28.58,South,172,2.0,2.0,100,0.02,,,0.02,VWS V14.01,2013-03-18 17:30:00,
2013-03-18 12:35:00,32.8,32.8,28.58,SSE,163,3.0,5.0,100,0.02,,,0.02,VWS V14.01,2013-03-18 17:35:00,
2013-03-18 12:40:00,32.8,32.8,28.57,SSE,163,0.0,1.0,100,0.03,,,0.03,VWS V14.01,2013-03-18 17:40:00,
2013-03-18 12:45:00,33.0,33.0,28.57,SSE,155,1.0,6.0,100,0.03,,,0.03,VWS V14.01,2013-03-18 17:45:00,
2013-03-18 12:50:00,33.0,33.0,28.56,SSE,167,2.0,2.0,100,0.02,,,0.03,VWS V14.01,2013-03-18 17:50:00,
2013-03-18 12:55:00,33.0,33.0,28.56,SSE,163,5.0,7.0,100,0.02,,,0.03,VWS V14.01,2013-03-18 17:55:00,
2013-03-18 13:00:00,32.8,32.8,28.56,SSW,192,3.0,3.0,100,0.02,,,0.03,VWS V14.01,2013-03-18 18:00:00,
2013-03-18 13:05:00,32.7,32.7,28.55,South,186,4.0,6.0,100,0.02,,,0.03,VWS V14.01,2013-03-18 18:05:00,
2013-03-18 13:10:00,32.6,32.6,28.55,SSE,162,3.0,6.0,100,0.01,,,0.03,VWS V14.01,2013-03-18 18:10:00,
2013-03-18 13:15:00,32.5,32.5,28.55,SSE,147,0.0,6.0,100,0.01,,,0.03,VWS V14.01,2013-03-18 18:15:00,
2013-03-18 13:20:00,32.4,32.4,28.55,South,179,1.0,5.0,100,0.01,,,0.03,VWS V14.01,2013-03-18 18:20:00,
2013-03-18 13:25:00,32.4,32.4,28.55,SSE,167,1.0,6.0,100,0.01,,,0.03,VWS V14.01,2013-03-18 18:25:00,
2013-03-18 13:30:00,32.4,32.4,28.54,South,190,0.0,1.0,100,0.02,,,0.04,VWS V14.01,2013-03-18 18:30:00,
2013-03-18 13:35:00,32.4,32.4,28.54,SSE,162,3.0,7.0,100,0.02,,,0.04,VWS V14.01,2013-03-18 18:35:00,
2013-03-18 13:40:00,32.6,32.6,28.54,South,176,3.0,4.0,100,0.01,,,0.04,VWS V14.01,2013-03-18 18:40:00,
2013-03-18 13:45:00,32.9,32.9,28.53,South,176,1.0,6.0,100,0.01,,,0.04,VWS V14.01,2013-03-18 18:45:00,
2013-03-18 13:50:00,33.4,33.4,28.53,South,175,2.0,4.0,100,0.01,,,0.04,VWS V14.01,2013-03-18 18:50:00,
2013-03-18 13:55:00,33.8,33.8,28.52,South,172,3.0,4.0,100,0.02,,,0.05,VWS V14.01,2013-03-18 18:55:00,
2013-03-18 14:00:00,34.5,34.5,28.52,SE,132,1.0,2.0,100,0.02,,,0.05,VWS V14.01,2013-03-18 19:00:00,
2013-03-18 14:05:00,35.2,35.2,28.52,South,186,1.0,5.0,100,0.03,,,0.06,VWS V14.01,2013-03-18 19:05:00,
2013-03-18 14:10:00,35.4,35.4,28.52,South,180,3.0,5.0,100,0.04,,,0.07,VWS V14.01,2013-03-18 19:10:00,
2013-03-18 14:15:00,35.4,35.4,28.52,SSW,202,1.0,5.0,100,0.04,,,0.07,VWS V14.01,2013-03-18 19:15:00,
2013-03-18 14:20:00,35.1,35.1,28.52,South,187,2.0,5.0,100,0.05,,,0.08,VWS V14.01,2013-03-18 19:20:00,
2013-03-18 14:25:00,34.7,34.7,28.52,South,190,0.0,8.0,100,0.05,,,0.08,VWS V14.01,2013-03-18 19:25:00,
2013-03-18 14:30:00,34.4,34.4,28.52,SSE,147,2.0,5.0,100,0.04,,,0.08,VWS V14.01,2013-03-18 19:30:00,
2013-03-18 14:35:00,34.1,34.1,28.51,SSW,197,1.0,6.0,100,0.04,,,0.08,VWS V14.01,2013-03-18 19:35:00,
2013-03-18 14:40:00,34.0,34.0,28.51,SSW,202,1.0,2.0,100,0.05,,,0.09,VWS V14.01,2013-03-18 19:40:00,
2013-03-18 14:45:00,33.9,33.9,28.51,SSW,194,2.0,11.0,100,0.05,,,0.09,VWS V14.01,2013-03-18 19:45:00,
2013-03-18 14:50:00,34.0,34.0,28.51,SSW,210,3.0,3.0,100,0.05,,,0.09,VWS V14.01,2013-03-18 19:50:00,
2013-03-18 14:55:00,34.1,34.1,28.51,SSW,203,3.0,7.0,100,0.05,,,0.09,VWS V14.01,2013-03-18 19:55:00,
2013-03-18 15:00:00,33.8,33.8,28.51,SSW,209,4.0,6.0,100,0.04,,,0.09,VWS V14.01,2013-03-18 20:00:00,
2013-03-18 15:05:00,33.7,33.7,28.51,SSW,192,3.0,10.0,100,0.04,,,0.09,VWS V14.01,2013-03-18 20:05:00,
2013-03-18 15:10:00,33.8,33.8,28.51,South,183,1.0,4.0,100,0.02,,,0.09,VWS V14.01,2013-03-18 20:10:00,
2013-03-18 15:15:00,34.1,34.1,28.51,South,187,2.0,7.0,100,0.03,,,0.10,VWS V14.01,2013-03-18 20:15:00,
2013-03-18 15:20:00,34.0,34.0,28.50,SSW,194,3.0,5.0,100,0.02,,,0.10,VWS V14.01,2013-03-18 20:20:00,
2013-03-18 15:25:00,34.0,34.0,28.51,South,182,2.0,8.0,100,0.02,,,0.10,VWS V14.01,2013-03-18 20:25:00,
2013-03-18 15:30:00,33.8,33.8,28.51,SSW,200,6.0,6.0,100,0.02,,,0.10,VWS V14.01,2013-03-18 20:30:00,
2013-03-18 15:35:00,33.6,33.6,28.51,SSW,201,3.0,10.0,100,0.02,,OVC013,0.10,VWS V14.01,2013-03-18 20:35:00,
2013-03-18 15:40:00,33.3,33.3,28.51,SSW,204,3.0,7.0,100,0.01,,OVC013,0.10,VWS V14.01,2013-03-18 20:40:00,
2013-03-18 15:45:00,33.2,33.2,28.50,SW,219,6.0,13.0,100,0.01,,OVC013,0.10,VWS V14.01,2013-03-18 20:45:00,
2013-03-18 15:50:00,32.9,32.9,28.51,SSW,200,7.0,7.0,100,0.01,,OVC013,0.10,VWS V14.01,2013-03-18 20:50:00,
2013-03-18 15:55:00,32.7,32.7,28.50,SSW,210,6.0,15.0,100,0.01,,,0.10,VWS V14.01,2013-03-18 20:55:00,
2013-03-18 16:00:00,32.5,32.5,28.50,SSW,198,6.0,11.0,100,0.01,,,0.10,VWS V14.01,2013-03-18 21:00:00,
2013-03-18 16:05:00,32.4,32.4,28.51,SSW,204,4.0,11.0,100,0.02,,,0.11,VWS V14.01,2013-03-18 21:05:00,
2013-03-18 16:10:00,32.3,32.3,28.50,SSW,196,6.0,8.0,100,0.02,,,0.11,VWS V14.01,2013-03-18 21:10:00,
2013-03-18 16:15:00,32.2,32.2,28.50,SSW,204,4.0,12.0,100,0.02,,,0.11,VWS V14.01,2013-03-18 21:15:00,
2013-03-18 16:20:00,32.1,32.1,28.51,SW,227,9.0,12.0,100,0.01,,,0.11,VWS V14.01,2013-03-18 21:20:00,
2013-03-18 16:25:00,32.0,32.0,28.51,SW,219,4.0,14.0,100,0.01,,,0.11,VWS V14.01,2013-03-18 21:25:00,
2013-03-18 16:30:00,31.9,31.9,28.51,SSW,211,6.0,10.0,100,0.01,,,0.11,VWS V14.01,2013-03-18 21:30:00,
2013-03-18 16:35:00,31.8,31.8,28.51,WSW,253,13.0,16.0,100,0.01,,,0.11,VWS V14.01,2013-03-18 21:35:00,
2013-03-18 16:40:00,31.7,31.7,28.51,SW,228,7.0,10.0,100,0.01,,,0.11,VWS V14.01,2013-03-18 21:40:00,
2013-03-18 16:45:00,31.2,31.2,28.52,WSW,242,12.0,21.0,100,0.01,,,0.11,VWS V14.01,2013-03-18 21:45:00,
2013-03-18 16:50:00,30.6,30.6,28.51,WSW,250,5.0,18.0,100,0.01,,,0.11,VWS V14.01,2013-03-18 21:50:00,
2013-03-18 16:55:00,30.3,30.3,28.52,West,263,5.0,18.0,100,0.01,,,0.11,VWS V14.01,2013-03-18 21:55:00,
2013-03-18 17:00:00,29.8,29.8,28.52,WSW,257,10.0,15.0,100,0.01,,,0.11,VWS V14.01,2013-03-18 22:00:00,
2013-03-18 17:05:00,29.4,29.4,28.52,West,269,6.0,15.0,100,0.01,,,0.11,VWS V14.01,2013-03-18 22:05:00,
2013-03-18 17:10:00,28.9,28.9,28.52,WSW,242,10.0,12.0,100,0.00,,,0.11,VWS V14.01,2013-03-18 22:10:00,
2013-03-18 17:15:00,28.3,28.3,28.53,WSW,256,12.0,20.0,100,0.00,,,0.11,VWS V14.01,2013-03-18 22:15:00,
2013-03-18 17:20:00,27.9,27.9,28.53,West,261,14.0,16.0,100,0.00,,,0.11,VWS V14.01,2013-03-18 22:20:00,
2013-03-18 17:25:00,27.5,27.5,28.53,WSW,250,13.0,18.0,100,0.00,,,0.11,VWS V14.01,2013-03-18 22:25:00,
2013-03-18 17:30:00,27.1,27.1,28.54,WSW,247,19.0,22.0,100,0.00,,,0.11,VWS V14.01,2013-03-18 22:30:00,
2013-03-18 17:35:00,26.6,26.6,28.54,WSW,254,14.0,22.0,100,0.00,,,0.11,VWS V14.01,2013-03-18 22:35:00,
2013-03-18 17:40:00,26.0,26.0,28.55,West,266,10.0,11.0,100,0.00,,,0.11,VWS V14.01,2013-03-18 22:40:00,
2013-03-18 17:45:00,25.5,25.5,28.55,West,278,12.0,28.0,100,0.00,,,0.11,VWS V14.01,2013-03-18 22:45:00,
2013-03-18 17:50:00,25.2,25.2,28.55,WNW,286,19.0,24.0,100,0.00,,,0.11,VWS V14.01,2013-03-18 22:50:00,
2013-03-18 17:55:00,24.8,24.8,28.56,West,262,9.0,24.0,100,0.00,,,0.11,VWS V14.01,2013-03-18 22:55:00,
2013-03-18 18:00:00,24.7,24.7,28.56,West,260,13.0,25.0,100,0.00,,,0.11,VWS V14.01,2013-03-18 23:00:00,
2013-03-18 18:05:00,24.5,24.5,28.56,WSW,249,7.0,25.0,100,0.00,,,0.11,VWS V14.01,2013-03-18 23:05:00,
2013-03-18 18:10:00,24.4,24.4,28.56,WSW,253,8.0,21.0,100,0.00,,,0.11,VWS V14.01,2013-03-18 23:10:00,
2013-03-18 18:15:00,24.2,24.2,28.56,WNW,288,13.0,21.0,100,0.00,,,0.11,VWS V14.01,2013-03-18 23:15:00,
2013-03-18 18:20:00,24.1,24.1,28.57,West,261,16.0,30.0,100,0.00,,,0.11,VWS V14.01,2013-03-18 23:20:00,
2013-03-18 18:25:00,23.8,23.8,28.56,West,262,14.0,30.0,100,0.00,,,0.11,VWS V14.01,2013-03-18 23:25:00,
2013-03-18 18:30:00,23.6,23.6,28.57,West,263,16.0,20.0,100,0.00,,,0.11,VWS V14.01,2013-03-18 23:30:00,
2013-03-18 18:35:00,23.5,23.5,28.57,WSW,256,14.0,20.0,100,0.00,,,0.11,VWS V14.01,2013-03-18 23:35:00,
2013-03-18 18:40:00,23.5,23.5,28.58,West,264,11.0,21.0,100,0.00,,,0.11,VWS V14.01,2013-03-18 23:40:00,
2013-03-18 18:45:00,23.3,23.3,28.58,WSW,253,11.0,22.0,100,0.00,,,0.11,VWS V14.01,2013-03-18 23:45:00,
2013-03-18 18:50:00,23.3,23.3,28.58,WSW,247,13.0,17.0,100,0.00,,,0.11,VWS V14.01,2013-03-18 23:50:00,
2013-03-18 18:55:00,23.2,23.2,28.58,WSW,250,6.0,18.0,100,0.00,,,0.11,VWS V14.01,2013-03-18 23:55:00,
2013-03-18 19:00:00,23.0,23.0,28.58,West,277,8.0,10.0,100,0.00,,,0.11,VWS V14.01,2013-03-19 00:00:00,
2013-03-18 19:05:00,22.6,22.6,28.59,West,275,11.0,22.0,100,0.00,,,0.11,VWS V14.01,2013-03-19 00:05:00,
2013-03-18 19:10:00,22.2,22.2,28.59,WNW,289,11.0,16.0,100,0.00,,,0.11,VWS V14.01,2013-03-19 00:10:00,
2013-03-18 19:15:00,21.8,21.8,28.60,West,270,9.0,18.0,100,0.00,,OVC017,0.11,VWS V14.01,2013-03-19 00:15:00,
2013-03-18 19:20:00,21.5,21.5,28.60,WSW,257,16.0,21.0,100,0.00,,OVC017,0.11,VWS V14.01,2013-03-19 00:20:00,
2013-03-18 19:25:00,21.2,21.2,28.60,West,272,14.0,23.0,100,0.00,,OVC017,0.11,VWS V14.01,2013-03-19 00:25:00,
2013-03-18 19:30:00,20.9,20.9,28.61,WNW,298,16.0,24.0,100,0.00,,OVC017,0.11,VWS V14.01,2013-03-19 00:30:00,
2013-03-18 19:35:00,20.7,20.7,28.60,WSW,257,11.0,24.0,100,0.00,,OVC017,0.11,VWS V14.01,2013-03-19 00:35:00,
2013-03-18 19:40:00,20.5,20.5,28.61,WNW,303,11.0,20.0,100,0.00,,OVC017,0.11,VWS V14.01,2013-03-19 00:40:00,
2013-03-18 19:45:00,20.4,20.4,28.61,NW,305,14.0,21.0,100,0.00,,OVC017,0.11,VWS V14.01,2013-03-19 00:45:00,
2013-03-18 19:50:00,20.1,20.1,28.62,SW,233,8.0,18.0,100,0.00,,OVC017,0.11,VWS V14.01,2013-03-19 00:50:00,
2013-03-18 19:55:00,20.0,20.0,28.62,WNW,294,13.0,18.0,100,0.00,,OVC039,0.11,VWS V14.01,2013-03-19 00:55:00,
2013-03-18 20:00:00,19.7,19.7,28.62,WNW,284,20.0,23.0,100,0.00,,OVC039,0.11,VWS V14.01,2013-03-19 01:00:00,
2013-03-18 20:05:00,19.4,19.4,28.62,WSW,252,11.0,23.0,100,0.00,,OVC039,0.11,VWS V14.01,2013-03-19 01:05:00,
2013-03-18 20:10:00,19.3,19.3,28.62,West,270,13.0,17.0,100,0.00,,OVC039,0.11,VWS V14.01,2013-03-19 01:10:00,
2013-03-18 20:15:00,19.1,19.1,28.62,West,267,8.0,22.0,100,0.00,,OVC039,0.11,VWS V14.01,2013-03-19 01:15:00,
2013-03-18 20:20:00,19.0,19.0,28.63,West,273,9.0,14.0,100,0.00,,OVC039,0.11,VWS V14.01,2013-03-19 01:20:00,
2013-03-18 20:25:00,18.8,18.8,28.63,WNW,297,10.0,16.0,100,0.00,,OVC039,0.11,VWS V14.01,2013-03-19 01:25:00,
2013-03-18 20:30:00,18.8,18.8,28.63,West,278,6.0,8.0,100,0.00,,OVC039,0.11,VWS V14.01,2013-03-19 01:30:00,
2013-03-18 20:35:00,18.8,18.8,28.63,West,267,6.0,16.0,100,0.00,,OVC039,0.11,VWS V14.01,2013-03-19 01:35:00,
2013-03-18 20:40:00,18.9,18.9,28.63,WSW,257,8.0,12.0,100,0.00,,OVC039,0.11,VWS V14.01,2013-03-19 01:40:00,
2013-03-18 20:45:00,18.9,18.9,28.63,West,268,9.0,12.0,100,0.00,,OVC039,0.11,VWS V14.01,2013-03-19 01:45:00,
2013-03-18 20:50:00,18.9,18.9,28.64,West,267,10.0,10.0,100,0.00,,OVC039,0.11,VWS V14.01,2013-03-19 01:50:00,
2013-03-18 20:55:00,18.9,18.9,28.64,West,274,8.0,18.0,100,0.00,,OVC030,0.11,VWS V14.01,2013-03-19 01:55:00,
2013-03-18 21:00:00,18.8,18.8,28.64,WNW,300,18.0,21.0,100,0.00,,OVC030,0.11,VWS V14.01,2013-03-19 02:00:00,
2013-03-18 21:05:00,18.8,18.8,28.64,West,263,12.0,21.0,100,0.00,,OVC030,0.11,VWS V14.01,2013-03-19 02:05:00,
2013-03-18 21:10:00,18.7,18.7,28.64,WNW,283,10.0,15.0,100,0.00,,OVC030,0.11,VWS V14.01,2013-03-19 02:10:00,
2013-03-18 21:15:00,18.7,18.7,28.64,WSW,249,7.0,16.0,100,0.00,,OVC030,0.11,VWS V14.01,2013-03-19 02:15:00,
2013-03-18 21:20:00,18.6,18.6,28.64,WSW,250,11.0,13.0,100,0.00,,OVC030,0.11,VWS V14.01,2013-03-19 02:20:00,
2013-03-18 21:25:00,18.4,18.4,28.64,WSW,250,9.0,20.0,100,0.00,,OVC030,0.11,VWS V14.01,2013-03-19 02:25:00,
2013-03-18 21:30:00,18.2,18.2,28.65,WSW,247,8.0,11.0,100,0.00,,OVC030,0.11,VWS V14.01,2013-03-19 02:30:00,
2013-03-18 21:35:00,18.1,18.1,28.64,WSW,256,6.0,18.0,100,0.00,,OVC032,0.11,VWS V14.01,2013-03-19 02:35:00,
2013-03-18 21:40:00,18.0,18.0,28.65,West,259,20.0,21.0,100,0.00,,OVC032,0.11,VWS V14.01,2013-03-19 02:40:00,
2013-03-18 21:45:00,17.8,17.8,28.65,SW,234,10.0,21.0,100,0.00,,OVC032,0.11,VWS V14.01,2013-03-19 02:45:00,
2013-03-18 21:50:00,17.7,17.7,28.65,WSW,254,16.0,20.0,100,0.00,,OVC032,0.11,VWS V14.01,2013-03-19 02:50:00,
2013-03-18 21:55:00,17.5,17.5,28.65,West,272,8.0,20.0,100,0.00,,OVC032,0.11,VWS V14.01,2013-03-19 02:55:00,
2013-03-18 22:00:00,17.4,17.4,28.65,WSW,242,5.0,13.0,100,0.00,,OVC032,0.11,VWS V14.01,2013-03-19 03:00:00,
2013-03-18 22:05:00,17.3,17.3,28.65,WNW,297,6.0,22.0,100,0.00,,OVC032,0.11,VWS V14.01,2013-03-19 03:05:00,
2013-03-18 22:10:00,17.2,17.2,28.65,WSW,250,16.0,16.0,100,0.00,,OVC032,0.11,VWS V14.01,2013-03-19 03:10:00,
2013-03-18 22:15:00,17.1,17.1,28.65,WSW,258,24.0,24.0,100,0.00,,OVC032,0.11,VWS V14.01,2013-03-19 03:15:00,
2013-03-18 22:20:00,17.0,17.0,28.66,West,272,12.0,14.0,100,0.00,,OVC032,0.11,VWS V14.01,2013-03-19 03:20:00,
2013-03-18 22:25:00,17.1,17.1,28.66,WSW,249,16.0,25.0,100,0.00,,OVC032,0.11,VWS V14.01,2013-03-19 03:25:00,
2013-03-18 22:30:00,17.1,17.1,28.66,WSW,237,11.0,11.0,100,0.00,,OVC032,0.11,VWS V14.01,2013-03-19 03:30:00,
2013-03-18 22:35:00,17.0,17.0,28.66,WSW,250,12.0,21.0,100,0.00,,BKN110,0.11,VWS V14.01,2013-03-19 03:35:00,
2013-03-18 22:40:00,16.9,16.9,28.66,SW,233,12.0,14.0,100,0.00,,BKN110,0.11,VWS V14.01,2013-03-19 03:40:00,
2013-03-18 22:45:00,16.9,16.9,28.66,WSW,255,3.0,22.0,100,0.00,,BKN110,0.11,VWS V14.01,2013-03-19 03:45:00,
2013-03-18 22:50:00,16.9,16.9,28.66,West,261,10.0,16.0,100,0.00,,BKN110,0.11,VWS V14.01,2013-03-19 03:50:00,
2013-03-18 22:55:00,16.8,16.8,28.66,WSW,258,13.0,20.0,100,0.00,,BKN030,0.11,VWS V14.01,2013-03-19 03:55:00,
2013-03-18 23:00:00,16.7,16.7,28.67,West,267,14.0,19.0,100,0.00,,BKN030,0.11,VWS V14.01,2013-03-19 04:00:00,
2013-03-18 23:05:00,16.7,16.7,28.66,West,270,10.0,21.0,100,0.00,,BKN030,0.11,VWS V14.01,2013-03-19 04:05:00,
2013-03-18 23:10:00,16.6,16.6,28.66,WSW,246,6.0,16.0,100,0.00,,BKN030,0.11,VWS V14.01,2013-03-19 04:10:00,
2013-03-18 23:15:00,16.6,16.6,28.67,WNW,297,10.0,18.0,100,0.00,,BKN030,0.11,VWS V14.01,2013-03-19 04:15:00,
2013-03-18 23:20:00,16.5,16.5,28.67,WNW,284,9.0,14.0,100,0.00,,BKN030,0.11,VWS V14.01,2013-03-19 04:20:00,
2013-03-18 23:25:00,16.4,16.4,28.66,NW,318,19.0,21.0,100,0.00,,BKN030,0.11,VWS V14.01,2013-03-19 04:25:00,
2013-03-18 23:30:00,16.3,16.3,28.66,WNW,286,9.0,19.0,100,0.00,,BKN030,0.11,VWS V14.01,2013-03-19 04:30:00,
2013-03-18 23:35:00,16.2,16.2,28.66,West,273,8.0,19.0,100,0.00,,OVC030,0.11,VWS V14.01,2013-03-19 04:35:00,
2013-03-18 23:40:00,16.2,16.2,28.66,WSW,242,12.0,12.0,100,0.00,,OVC030,0.11,VWS V14.01,2013-03-19 04:40:00,
2013-03-18 23:45:00,16.2,16.2,28.66,West,278,10.0,17.0,100,0.00,,OVC030,0.11,VWS V14.01,2013-03-19 04:45:00,
2013-03-18 23:50:00,16.1,16.1,28.66,West,261,9.0,16.0,100,0.00,,OVC030,0.11,VWS V14.01,2013-03-19 04:50:00,
2013-03-18 23:55:00,15.9,15.9,28.66,West,263,6.0,21.0,100,0.00,,OVC030,0.11,VWS V14.01,2013-03-19 04:55:00,